Marrakech, Morocco

9:04 PM WEST on August 26, 2016 (GMT +0100)
Marrakech

Weather History for 60230 - April, 2013

Change the Weather History Date:

Wednesday, April 24, 2013

  Actual Average Record
Temperature  
Mean Temperature 70 °F -  
Max Temperature 85 °F 80 °F - ()
Min Temperature 54 °F 56 °F - ()
Cooling Degree Days 4    
Growing Degree Days 20 (Base 50)    
Moisture  
Dew Point 46 °F    
Average Humidity 39    
Maximum Humidity 77    
Minimum Humidity 15    
Precipitation  
Precipitation 0.00 in 0.04 in - ()
Sea Level Pressure  
Sea Level Pressure 29.88 in    
Wind  
Wind Speed 5 mph ()    
Max Wind Speed 18 mph    
Max Gust Speed 26 mph    
Visibility 6.2 miles    
Events      
T = Trace of Precipitation, MM = Missing Value Source: Averaged Metar Reports

Daily Weather History Graph

Daily Weather History Graph

Search for Another Location

Airport or City:

Trip Planner

Search our weather history database for the weather conditions in past years. The results will help you decide how hot, cold, wet, or windy it might be!

Date:

Astronomy

Apr. 24, 2013 Rise Set
Actual Time 5:53 AM WET 7:07 PM WET
Civil Twilight 5:28 AM WET 7:32 PM WET
Nautical Twilight 4:58 AM WET 8:03 PM WET
Astronomical Twilight 4:26 AM WET 8:34 PM WET
Moon 5:57 PM WET (4/24) 4:43 AM WET (4/24)
Length of Visible Light 14h 04m
Length of Day
13h 13m
Waxing Gibbous, 98% of the Moon is Illuminated
Apr 24
Waxing Gibbous
Apr 25
Full
May 2
Last Quarter
May 10
New
May 18
First Quarter

Hourly Weather History & Observations

Time (WET) Temp. Dew Point Humidity Pressure Visibility Wind Dir Wind Speed Gust Speed Precip Events Conditions
12:00 AM 68 °F 49 °F 41% 29.82 in 6 mi ENE 4.6 mph - -  
12:30 AM 66.2 °F 50.0 °F 56% 29.86 in - East 4.6 mph - N/A   Clear
1:00 AM 68.0 °F 50.0 °F 52% 29.83 in - SE 4.6 mph - N/A   Clear
1:30 AM 64.4 °F 48.2 °F 56% 29.83 in - Calm Calm - N/A   Clear
2:00 AM 62.6 °F 48.2 °F 59% 29.83 in - East 3.5 mph - N/A   Clear
2:30 AM 64.4 °F 48.2 °F 56% 29.83 in 6.2 mi East 1.2 mph - N/A   Unknown
3:00 AM 64 °F 47 °F 44% 29.80 in 6 mi East 2.3 mph - -  
3:00 AM 64.4 °F 48.2 °F 56% 29.83 in 6.2 mi Calm Calm - N/A   Unknown
5:30 AM 57.2 °F 48.2 °F 72% 29.86 in - West 5.8 mph - N/A   Clear
6:00 AM 59 °F 49 °F 59% 29.85 in 6 mi WSW 8.1 mph - -  
6:00 AM 57.2 °F 48.2 °F 72% 29.86 in - West 5.8 mph - N/A   Clear
6:30 AM 59.0 °F 51.8 °F 77% 29.86 in - WSW 5.8 mph - N/A   Clear
7:00 AM 60.8 °F 50.0 °F 68% 29.89 in - WSW 3.5 mph - N/A   Clear
7:30 AM 64.4 °F 51.8 °F 64% 29.89 in - West 4.6 mph - N/A   Clear
8:00 AM 66.2 °F 53.6 °F 64% 29.89 in - Variable 2.3 mph - N/A   Clear
8:30 AM 68.0 °F 53.6 °F 60% 29.92 in - Variable 2.3 mph - N/A   Clear
9:00 AM 71 °F 52 °F 40% 29.86 in 6 mi Calm Calm - -  
9:00 AM 69.8 °F 51.8 °F 53% 29.92 in - Calm Calm - N/A   Clear
9:30 AM 73.4 °F 51.8 °F 47% 29.92 in - Variable 2.3 mph - N/A   Clear
10:00 AM 75.2 °F 50.0 °F 41% 29.92 in - Variable 1.2 mph - N/A   Clear
10:30 AM 77.0 °F 50.0 °F 39% 29.92 in - Variable 2.3 mph - N/A   Clear
11:00 AM 78.8 °F 48.2 °F 34% 29.92 in - NNW 3.5 mph - N/A   Clear
11:30 AM 78.8 °F 46.4 °F 32% 29.92 in - Variable 1.2 mph - N/A   Clear
12:00 PM 80 °F 45 °F 19% 29.83 in 6 mi NW 6.9 mph - -   Scattered Clouds
12:00 PM 80.6 °F 46.4 °F 30% 29.92 in 6.2 mi WNW 6.9 mph - N/A   Partly Cloudy
12:30 PM 82.4 °F 42.8 °F 25% 29.89 in 6.2 mi NNE 3.5 mph - N/A   Partly Cloudy
1:00 PM 82.4 °F 41.0 °F 23% 29.89 in 6.2 mi NW 8.1 mph - N/A   Partly Cloudy
1:30 PM 82.4 °F 42.8 °F 25% 29.89 in 6.2 mi NW 8.1 mph - N/A   Partly Cloudy
2:00 PM 84.2 °F 42.8 °F 23% 29.89 in 6.2 mi West 11.5 mph - N/A   Partly Cloudy
2:30 PM 84.2 °F 44.6 °F 25% 29.89 in 6.2 mi WNW 11.5 mph - N/A   Partly Cloudy
3:00 PM 85 °F 45 °F 16% 29.78 in 6 mi WNW 15.0 mph - -   Scattered Clouds
3:00 PM 86.0 °F 44.6 °F 23% 29.86 in 6.2 mi WNW 12.7 mph - N/A   Partly Cloudy
3:30 PM 86.0 °F 46.4 °F 25% 29.86 in 6.2 mi WNW 9.2 mph - N/A   Scattered Clouds
4:00 PM 86.0 °F 46.4 °F 25% 29.86 in 6.2 mi NNW 9.2 mph - N/A   Mostly Cloudy
4:30 PM 86.0 °F 46.4 °F 25% 29.86 in 6.2 mi WNW 15.0 mph 26.5 mph N/A   Mostly Cloudy
5:00 PM 84.2 °F 44.6 °F 25% 29.86 in 6.2 mi WNW 13.8 mph - N/A   Scattered Clouds
5:30 PM 82.4 °F 44.6 °F 26% 29.86 in 6.2 mi WNW 15.0 mph - N/A   Scattered Clouds
6:00 PM 82 °F 43 °F 15% 29.79 in 6 mi WNW 15.0 mph - -   Partly Cloudy
6:00 PM 82.4 °F 42.8 °F 25% 29.86 in 6.2 mi WNW 16.1 mph - N/A   Scattered Clouds
6:30 PM 80.6 °F 41.0 °F 24% 29.89 in 6.2 mi WNW 18.4 mph - N/A   Scattered Clouds
7:00 PM 78.8 °F 39.2 °F 24% 29.89 in 6.2 mi WNW 17.3 mph - N/A   Scattered Clouds
7:30 PM 77.0 °F 39.2 °F 26% 29.89 in 6.2 mi WNW 15.0 mph - N/A   Scattered Clouds
8:00 PM 75.2 °F 39.2 °F 27% 29.92 in 6.2 mi WNW 11.5 mph - N/A   Scattered Clouds
8:30 PM 73.4 °F 39.2 °F 29% 29.92 in 6.2 mi WNW 9.2 mph - N/A   Scattered Clouds
9:00 PM 74 °F 40 °F 19% 29.89 in 6 mi West 3.5 mph - -   Partly Cloudy
9:00 PM 73.4 °F 41.0 °F 31% 29.95 in 6.2 mi West 3.5 mph - N/A   Scattered Clouds
9:30 PM 73.4 °F 41.0 °F 31% 29.95 in 6.2 mi SSW 5.8 mph - N/A   Scattered Clouds
10:00 PM 73.4 °F 41.0 °F 31% 29.95 in 6.2 mi SW 6.9 mph - N/A   Scattered Clouds
10:30 PM 71.6 °F 42.8 °F 35% 29.95 in 6.2 mi SSW 6.9 mph - N/A   Scattered Clouds
11:00 PM 69.8 °F 42.8 °F 38% 29.95 in 6.2 mi WSW 8.1 mph - N/A   Scattered Clouds
11:30 PM 68.0 °F 42.8 °F 40% 29.95 in 6.2 mi WSW 8.1 mph - N/A   Scattered Clouds